Regional Weather Roundup
Issued by NWS

Home | Current Version | Previous Version | Graphics & Text | Print | Product List | Glossary Off
Versions: 1 2 3 4 5 6 7 8 9 10 11 12 13 14 15 16 17 18 19 20 21 22 23 24 25 26 27 28 29 30 31 32 33 34 35 36 37 38 39 40 41 42 43 44 45 46 47 48 49

000
ASUS45 KBOU 270907
RWRCO

WEATHER ROUNDUP FOR COLORADO
NATIONAL WEATHER SERVICE DENVER/BOULDER CO
200 AM MST FRI FEB 27 2015

NOTE: "FAIR" INDICATES FEW OR NO CLOUDS BELOW 12000 FEET WITH NO
SIGNIFICANT WEATHER AND/OR OBSTRUCTIONS TO VISIBILITY.

COZ001>005-013-030-031-271000-
...NORTHWEST COLORADO...

CITY           SKY/WX    TMP DP  RH WIND       PRES   REMARKS
CRAIG          CLOUDY    16  10  77 SW9       29.87S WCI   4
HAYDEN         MOCLDY    16  10  79 W7        29.84R WCI   6
MEEKER         LGT SNOW  21  18  88 CALM      29.84R FOG
MOUNT WERNER   NOT AVBL
STEAMBOAT SPGS CLOUDY    15  11  84 CALM      29.83R
WALDEN         PTCLDY     0  -4  85 SE3       29.80F
$$

COZ006>008-011-271000-
...WEST CENTRAL VALLEYS...

CITY           SKY/WX    TMP DP  RH WIND       PRES   REMARKS
GRAND JUNCTION CLOUDY    32  28  85 N3        29.83S
MONTROSE       CLOUDY    27  21  78 SE8       29.85S WCI  19
EAGLE          CLOUDY    25  25 100 W5        29.81F WCI  19
RIFLE          CLOUDY    30  25  81 NW3       29.82F
DELTA          CLOUDY    33  28  83 CALM      29.85S
NUCLA          CLOUDY    28  27  93 E5        29.88S WCI  23
$$

COZ017>023-064>068-271000-
...SOUTHWEST COLORADO...

CITY           SKY/WX    TMP DP  RH WIND       PRES   REMARKS
DURANGO        FOG       23  22  96 CALM      29.81S VSB 3/4
CORTEZ         CLOUDY    29  27  92 CALM      29.85F
PAGOSA SPRINGS LGT SNOW  27  27 100 SW5       29.80R WCI  22
TELLURIDE      FLURRIES  19  18  95 W3        29.80S
WOLF CREEK PAS HVY SNOW  10  10 100 SW20G26   29.75F VSB 1/4 WCI  -8
$$

COZ009-010-012-014-032>034-037-058>063-271000-
...CENTRAL COLORADO...

CITY           SKY/WX    TMP DP  RH WIND       PRES   REMARKS
ASPEN          LGT SNOW  19  16  88 S7        29.76S FOG     WCI  10
BUENA VISTA    LGT SNOW   4   0  83 E5        29.90F WCI  -5
COPPER MTN     LGT SNOW  12   5  73 MISG      29.67F
BERTHOUD PASS  LGT SNOW   1  -6  71 NW18      29.64F VSB 1   WCI -19
COTTONWOOD PAS LGT SNOW   1  -4  78 CALM      29.78S
GUNNISON       PTCLDY    16  10  79 CALM      29.82S
KREMMLING      CLOUDY    14  10  85 E6        29.83S WCI   5
LEADVILLE      LGT SNOW  -4 -10  75 CALM      29.76F
MONARCH PASS   CLOUDY     9   3  78 MISG      29.79F
SALIDA         CLOUDY     7   2  80 SE9       30.00F WCI  -6
SUNLIGHT       LGT SNOW  16  14  93 CALM      29.71R VSB 3/4
WILKERSON PASS PTCLDY    -4  -8  84 W6        29.71F WCI -16
$$

COZ069>075-271000-
...SAN LUIS VALLEY/SANGRE DE CRISTO MOUNTAINS...

CITY           SKY/WX    TMP DP  RH WIND       PRES   REMARKS
ALAMOSA        CLOUDY    20  13  74 S15       29.80F WCI   6
LA VETA PASS   FLURRIES  -4  -8  84 N8        29.76F WCI -19
SAGUACHE       NOT AVBL
$$

COZ035-036-038>040-271000-
...NORTHERN COLORADO FRONT RANGE...

CITY           SKY/WX    TMP DP  RH WIND       PRES   REMARKS
DENVER INTL AP FLURRIES   5  -1  76 S9        30.05F WCI  -9
DMNS CITY PARK   N/A     10   8  91 NW3       30.05F
AURORA         CLOUDY     6  -1  75 S5        30.04F WCI  -3
FRONT RANGE AP NOT AVBL
ERIE MUNI ARPT CLOUDY     3   0  89 CALM      30.07S
BOULDER MUN AP CLOUDY    10   9  92 W3        30.05F
CENTENNIAL     MOCLDY     4   0  83 S5        30.02F WCI  -5
BROOMFIELD     FLURRIES   9   5  85 N8        30.03F WCI  -4
FORT COLLINS   PTCLDY    10   7  85 N5        30.08F WCI   2
LONGMONT       CLOUDY    12   8  83 NW3       30.09F
$$

COZ041-046-047-076>085-087-088-271000-
...PIKES PEAK/PALMER DIVIDE AND SOUTHERN FOOTHILLS...

CITY           SKY/WX    TMP DP  RH WIND       PRES   REMARKS
COLO. SPRINGS  LGT SNOW   7   4  87 SE15      30.04F VSB 3/4 WCI -10
A. F. ACADEMY  CLOUDY     6   1  81 S13       29.99F HAZE    WCI -11
ELLICOTT       NOT AVBL
FALCON         LGT SNOW   5   1  86 SE10      29.99F WCI -10
FORT CARSON    LGT SNOW   8   5  88 S8        30.05F VSB 1   WCI  -5
LIMON          LGT SNOW   8   5  87 SE17      30.11S FOG     WCI -10
MONUMENT HILL  CLOUDY     3   0  85 S15       29.94F WCI -15
TRINIDAD       LGT SNOW  10   6  84 N8        30.04F FOG     WCI  -2
$$

COZ042>045-048>051-090-091-271000-
...NORTHEAST COLORADO...

CITY           SKY/WX    TMP DP  RH WIND       PRES   REMARKS
GREELEY ARPT   PTCLDY    12   5  73 SE15      30.09F WCI  -4
AKRON          LGT SNOW   8   5  87 E14       30.16F FOG     WCI  -8
BURLINGTON     LGT SNOW  11   7  84 SE13      30.22F FOG     WCI  -4
WRAY           CLOUDY    11   2  67 E9        30.29F WCI  -1
STERLING       FLURRIES  10   5  79 SE8       30.23F WCI  -1
HOLYOKE        NOT AVBL
FORT MORGAN    CLOUDY    11   7  84 SE12      30.16F WCI  -3
$$

COZ086-089-092>099-271000-
...SOUTHEAST COLORADO...

CITY           SKY/WX    TMP DP  RH WIND       PRES   REMARKS
PUEBLO         LGT SNOW  12  10  92 E6        30.14F VSB 1   WCI   3
LA JUNTA       LGT SNOW  14  10  84 E17       30.18F FOG     WCI  -3
LAMAR          LGT SNOW  15  12  88 SE8       30.23F FOG     WCI   4
SPRINGFIELD      N/A     11   9  92 SE15      30.19F WCI  -5
$$



USA.gov is the U.S. government's official web portal to all federal, state and local government web resources and services.